Location: Unspecified
(0.0000°N, 0.0000°E)
Time: 04:02:08
(UTC+00:00)

Envisat - Pass Details

Date: 27 May 2017
Orbit: 764 x 766 km, 98.2° (Epoch: 19 September)

Event Time Altitude Azimuth Distance (km) Brightness Sun altitude
Exits shadow 20:40:04 16° 346° (NNW) 1,926 5.4 -37.4°
Drops below altitude 10° 20:41:00 10° 347° (NNW) 2,291 5.8 -37.6°
Sets 20:43:17 0° 347° (NNW) 3,213 6.7 -38.1°
